+ View the NASA Portal
+ Center for Near-Earth Object Studies
IMPORTANT:
The SSD Announcement email list is now available. Major changes are coming in the near future, including possible hostname and/or URL changes. To be notified of such changes, subscribe to this email list.
Please visit
this page
for more details.
Don't show this message again
JPL Small-Body Database Browser
Search:
[
help
]
437345 (2013 TO24)
Classification:
Main-belt Asteroid
SPK-ID:
2437345
[
Ephemeris
|
Orbit Diagram
|
Orbital Elements
|
Mission Design
|
Physical Parameters
|
Discovery Circumstances
]
[ show orbit diagram ]
Orbital Elements at Epoch 2458600.5 (2019-Apr-27.0) TDB
Reference:
JPL 15
(heliocentric ecliptic J2000)
Element
Value
Uncertainty (1-sigma)
Units
e
.08305198042855827
9.2815e-08
a
2.217759686223981
2.9609e-08
au
q
2.033570352168462
1.9164e-07
au
i
5.979123335144723
7.0716e-06
deg
node
223.2344062640224
7.8771e-05
deg
peri
279.7263807272687
8.974e-05
deg
M
137.7127059606283
4.5727e-05
deg
t
p
2458139.031920898936
(2018-Jan-20.53192090)
0.00014966
TDB
period
1206.3411819377
3.30
2.4158e-05
6.614e-08
d
yr
n
.2984230376863582
5.9762e-09
deg/d
Q
2.401949020279501
3.2068e-08
au
Orbit Determination Parameters
# obs. used (total)
99
data-arc span
5801 days (15.88 yr)
first obs. used
2003-10-16
last obs. used
2019-09-03
planetary ephem.
DE431
SB-pert. ephem.
SB431-N16
condition code
0
norm. resid. RMS
.7367
source
ORB
producer
Otto Matic
solution date
2019-Sep-24 07:37:32
Additional Information
Earth MOID
= 1.05608 au
Jupiter MOID
= 2.61942 au
T_jup
= 3.640
[ show covariance matrix ]
[
Ephemeris
|
Orbit Diagram
|
Orbital Elements
|
Mission Design
|
Physical Parameters
|
Discovery Circumstances
]
Physical Parameter Table
Parameter
Symbol
Value
Units
Sigma
Reference
Notes
absolute magnitude
H
18.0
n/a
MPO392153
437345 (2013 TO24)
Discovered 2010-Nov-13 by Spacewatch at Kitt Peak
Reference:
Last Updated:
2015-06-04
[
Ephemeris
|
Orbit Diagram
|
Orbital Elements
|
Mission Design
|
Physical Parameters
|
Discovery Circumstances
]
2019-Dec-06 18:20 UT
(server date/time)
Site Manager:
Ryan S. Park
Webmaster
:
Alan B. Chamberlin